Regional Weather Roundup
Issued by NWS

Home | Current Version | Previous Version | Text Only | Print | Product List | Glossary Off
Versions: 1 2 3 4 5 6 7 8 9 10 11 12 13 14 15 16 17 18 19 20 21 22 23 24 25 26 27 28 29 30 31 32 33 34 35 36 37 38 39 40 41 42 43 44 45 46 47 48 49 50

000
ASUS43 KDMX 251504
RWRIA

WEATHER ROUNDUP FOR IOWA
NATIONAL WEATHER SERVICE DES MOINES IA
  ISSUED BY NWS QUAD CITIES IA IL
900 AM CST SUN JAN 25 2015

NOTE: "FAIR" INDICATES FEW OR NO CLOUDS BELOW 12,000 FEET WITH NO
SIGNIFICANT WEATHER AND/OR OBSTRUCTIONS TO VISIBILITY.

* - THESE STATIONS ARE NOT NWS STATIONS...THUS NOT UNDER NWS
QUALITY CONTROL.  THEY ALSO DO NOT REPORT WEATHER SUCH
AS PRECIPITATION OR FOG.

IAZ001>003-012>014-020>022-031>034-043>046-251600-
   NORTHWEST IOWA

CITY           SKY/WX    TMP DP  RH WIND       PRES   REMARKS
CARROLL *      CLOUDY    34  34 100 N24       29.83R WCI  21
CHEROKEE *     CLOUDY    33  32  96 N10G18    29.90R WCI  25
DENNISON *     CLOUDY    34  34 100 N18G26    29.84R WCI  23
LE MARS *      CLOUDY    34  34 100 N14       29.93R WCI  24
ORANGE CITY *  CLOUDY    34  30  86 N10       29.92R WCI  26
SHELDON *      CLOUDY    32  32 100 N15       29.90R WCI  22
SIOUX CITY     CLOUDY    36  33  89 N16       29.92R WCI  26
SPENCER        CLOUDY    32  29  88 N15       29.90R WCI  22
STORM LAKE *   CLOUDY    32  32 100 N18G25    29.87R WCI  20
$$

IAZ055>058-069>071-079>083-090>094-251600-
   SOUTHWEST IOWA

CITY           SKY/WX    TMP DP  RH WIND       PRES   REMARKS
ATLANTIC *     MIX PCPN  34  34 100 N21G28    29.81R WCI  22
AUDUBON *      PTSUNNY   34  30  86 N20G31    29.82R FOG     WCI  22
CLARINDA *     LGT RAIN  36  34  93 N23G30    29.79R WCI  24
COUNCIL BLFS * CLOUDY    34  34 100 N16G26    29.83R WCI  23
CRESTON *      CLOUDY    34  34 100 N20G26    29.73R FOG     WCI  22
HARLAN *       CLOUDY    34  34 100 N20G29    29.86R WCI  22
LAMONI         CLOUDY    35  33  92 N18       29.68R WCI  24
RED OAK *      CLOUDY    36  34  93 N20G28    29.81R WCI  25
SHENANDOAH *   CLOUDY    36  34  93 N21G30    29.81R WCI  24
$$

IAZ047>049-059>061-072>074-084-251600-
   CENTRAL IOWA

CITY           SKY/WX    TMP DP  RH WIND       PRES   REMARKS
AMES           LGT SNOW  33  31  92 NE14      29.78R VSB 1   WCI  23
ANKENY *       LGT SNOW  34  34 100 N16G26    29.77R WCI  23
BOONE *        LGT SNOW  34  34 100 NE21      29.77R WCI  22
CHARITON *     LGT RAIN  36  34  93 N16G24    29.68R WCI  26
DES MOINES     LGT SNOW  34  31  88 NE16      29.75R VSB 3/4 WCI  24
GRINNELL *     LGT SNOW  32  32  99 NE14G24   29.73R WCI  22
KNOXVILLE *    LGT SNOW  34  32  93 NE13G22   29.70R WCI  25
MARSHALLTOWN   LGT SNOW  33  31  92 NE21      29.77R VSB 1   WCI  21
NEWTON *       SNOW      32  32 100 NE14G22   29.75R VSB 1/2 WCI  22
PELLA *        HVY RAIN  33  33  99 NE14      29.74R WCI  23
PERRY *        LGT RAIN  34  34  98 N15G23    29.79R WCI  25
$$

IAZ004>006-015-016-023>025-035-036-251600-
   NORTH CENTRAL IOWA

CITY           SKY/WX    TMP DP  RH WIND       PRES   REMARKS
ALGONA *       CLOUDY    32  25  74 NE21      29.87R WCI  20
CLARION *      MIX PCPN  34  34 100 N21G28    29.83R WCI  22
ESTHERVILLE    CLOUDY    30  28  92 N16       29.89R WCI  19
FORT DODGE *   CLOUDY    34  28  80 N12       29.85R WCI  25
MASON CITY     CLOUDY    30  28  92 N15       29.87R WCI  19
WEBSTER CITY * CLOUDY    34  34 100 N15G22    29.81R FOG     WCI  24
IOWA FALLS *   LGT SNOW  33  32  96 NE13      29.81R WCI  24
$$

IAZ007>011-017>019-026>030-037>042-050>054-066-251600-
   NORTHEAST IOWA

CITY           SKY/WX    TMP DP  RH WIND       PRES   REMARKS
CEDAR RAPIDS   SNOW      30  29  96 NE23      29.74R VSB 1/2 WCI  17
CHARLES CITY * CLOUDY    30  30 100 NE17G24   29.84R WCI  18
CLINTON *      CLOUDY    28  27  93 NE23G31   29.77R WCI  14
DECORAH *      CLOUDY    27  23  86 NE14G20   29.85R WCI  15
DUBUQUE        SNOW      25  22  88 NE20G29   29.78R VSB 1/2 WCI  11
MONTICELLO *   LGT SNOW  28  28 100 NE14G25   29.78R WCI  17
OELWEIN *      LGT SNOW  28  27  93 NE18G25   29.81R WCI  16
WATERLOO       LGT SNOW  30  29  96 NE15      29.82R FOG     WCI  19
$$

IAZ064-065-067-068-078-251600-
   EAST CENTRAL IOWA

CITY           SKY/WX    TMP DP  RH WIND       PRES   REMARKS
DAVENPORT      LGT SNOW  30  27  88 NE21G29   29.73R VSB 3/4 WCI  17
IOWA CITY      SNOW      32  30  92 NE16G23   29.74R VSB 1/2 WCI  21
MT. PLEASANT * LGT SNOW  32  32 100 NE15      29.67R VSB 3/4 WCI  22
MUSCATINE *    LGT SNOW  34  32  93 NE25G31   29.71R VSB 3/4 WCI  21
QUAD CITIES    SNOW      31  29  92 NE18G26   29.71R VSB 1/2 WCI  19
$$

IAZ062-063-075>077-085>089-095>099-251600-
   SOUTHEAST IOWA

CITY           SKY/WX    TMP DP  RH WIND       PRES   REMARKS
BURLINGTON     LGT SNOW  35  35 100 NE15G23   29.64R FOG     WCI  25
FAIRFIELD *    LGT SNOW  34  32  93 NE16      29.68R VSB 3/4 WCI  23
FORT MADISON * LGT RAIN  37  37 100 NE14      29.64R WCI  29
KEOKUK *       MIX PCPN  39  39 100 NE9       29.61R WCI  33
OTTUMWA        SNOW      33  33 100 NE16      29.67R VSB 1/2 WCI  23
WASHINGTON *   LGT SNOW  34  34 100 NE21      29.69R VSB 1   WCI  22
$$

ABBREVIATIONS USED IN REMARKS
   TC - TEMPERATURES IN CELSIUS
  WCI - WIND CHILL INDEX
   HX - HEAT INDEX
  VSB - VISIBILITY
$$



USA.gov is the U.S. government's official web portal to all federal, state and local government web resources and services.